This demonstration page uses our WeatherBlox Daily Observations layout. Learn more.

Left ArrowRight Arrow

Hourly Observations for February 11, 2022

Temp ( °F °C ) Dew Point ( °F °C ) Humidity (%) Winds ( mph kmh ) Pressure ( in mb ) Visibility ( mi km ) Precip ( " mm )
12:56 am 00:56 Mostly Cloudy 49 9.4 31 -0.6 50 50 NNE 17 28 29.65 1004 10 16 0.00 0.00
1:56 am 01:56 Mostly Clear 46 7.8 35 1.7 66 66 N 15 24 29.68 1005 10 16 0.00 0.00
2:56 am 02:56 Mostly Clear 44 6.7 35 1.7 71 71 N 16 26 29.71 1006 10 16 0.00 0.00
3:56 am 03:56 Partly Cloudy 42 5.6 34 1.1 73 73 N 17 28 29.74 1007 10 16 0.00 0.00
4:56 am 04:56 Partly Cloudy 41 5 34 1.1 76 76 NNW 17 28 29.75 1008 10 16 0.00 0.00
5:56 am 05:56 Mostly Cloudy 40 4.4 33 0.6 77 77 NNW 18 30 29.81 1010 10 16 0.00 0.00
6:56 am 06:56 Clear 39 3.9 31 -0.6 73 73 NNW 16 26 29.84 1011 10 16 0.00 0.00
7:56 am 07:56 Sunny 39 3.9 30 -1.1 70 70 NNW 17 28 29.88 1012 10 16 0.00 0.00
8:56 am 08:56 Sunny 40 4.4 29 -1.7 65 65 NW 23 37 29.92 1013 10 16 0.00 0.00
9:56 am 09:56 Partly Cloudy 44 6.7 27 -2.8 51 51 NW 24 39 29.94 1014 10 16 0.00 0.00
10:56 am 10:56 Mostly Cloudy 46 7.8 26 -3.3 46 46 NNW 28 44 29.96 1014 10 16 0.00 0.00
11:56 am 11:56 Mostly Cloudy 47 8.3 24 -4.4 41 41 N 35 56 29.97 1015 10 16 0.00 0.00
12:56 pm 12:56 Mostly Cloudy 42 5.6 27 -2.8 55 55 NNW 31 50 30.03 1017 10 16 0.00 0.00
1:56 pm 13:56 Sunny 42 5.6 24 -4.4 49 49 NNW 29 46 30.05 1018 10 16 0.00 0.00
2:56 pm 14:56 Partly Cloudy 42 5.6 20 -6.7 41 41 N 28 44 30.08 1019 10 16 0.00 0.00
3:56 pm 15:56 Sunny 39 3.9 15 -9.4 38 38 NNW 32 52 30.12 1020 10 16 0.00 0.00
4:56 pm 16:56 Sunny 34 1.1 14 -10 44 44 N 25 41 30.18 1022 10 16 0.00 0.00
5:56 pm 17:56 Sunny 28 -2.2 14 -10 56 56 N 26 43 30.26 1025 10 16 0.00 0.00
6:56 pm 18:56 Clear 24 -4.4 12 -11.1 60 60 N 23 37 30.31 1027 10 16 0.00 0.00
7:56 pm 19:56 Clear 22 -5.6 10 -12.2 60 60 N 20 31 30.38 1029 10 16 0.00 0.00
8:56 pm 20:56 Clear 18 -7.8 8 -13.3 65 65 N 15 24 30.42 1030 10 16 0.00 0.00
9:56 pm 21:56 Clear 17 -8.3 7 -13.9 64 64 NNW 12 19 30.46 1031 10 16 0.00 0.00
10:56 pm 22:56 Clear 15 -9.4 6 -14.4 67 67 NNW 9 15 30.48 1032 10 16 0.00 0.00
11:56 pm 23:56 Clear 13 -10.6 5 -15 70 70 NW 9 15 30.50 1033 10 16 0.00 0.00

Powered by AerisWeather